AO-07 1 07530U 74089B 20107.79481203 -.00000019 00000-0 16206-3 0 9996 2 07530 101.7941 77.8948 0012485 121.6118 309.9974 12.53643019 78508 UO-11 1 14781U 84021B 20107.76137407 .00000100 00000-0 18299-4 0 9995 2 14781 97.5938 122.7937 0009634 51.0750 309.1322 14.83157457943680 LO-19 1 20442U 90005G 20107.57677192 -.00000000 00000-0 16375-4 0 9997 2 20442 98.6865 54.6354 0011437 342.7853 17.2941 14.32949949579752 HUBBLE 1 20580U 90037B 20107.14787597 .00000474 00000-0 17851-4 0 9993 2 20580 28.4707 11.7538 0002871 138.6504 351.8808 15.09370258446631 MET-2/21 1 22782U 93055A 20107.63212997 .00000037 00000-0 19800-4 0 9994 2 22782 82.5457 282.6434 0023358 50.7790 18.3936 13.83824839344765 AO-27 1 22825U 93061C 20107.73317835 -.00000002 00000-0 17411-4 0 9996 2 22825 98.9241 108.6308 0008172 189.5790 170.5236 14.30082429385268 IO-26 1 22826U 93061D 20107.87395600 .00000009 00000-0 21433-4 0 9993 2 22826 98.9181 108.7293 0008933 177.6949 182.4275 14.30417627385497 FO-29 1 24278U 96046B 20107.57284908 -.00000014 00000-0 21028-4 0 9994 2 24278 098.5748 225.5359 0350577 174.9379 185.5459 13.53097761168514 NOAA-15 1 25338U 98030A 20107.47614771 .00000022 00000-0 27922-4 0 9998 2 25338 098.7232 132.8245 0011572 084.5751 275.6748 14.25959009140148 GO-32 1 25397U 98043D 20107.73942417 -.00000015 00000-0 12916-4 0 9997 2 25397 98.7233 49.7227 0000605 177.9544 182.1637 14.23682930130997 ISS 1 25544U 98067A 20107.84559028 .00000428 00000-0 16078-4 0 9991 2 25544 51.6436 292.0575 0003771 124.3042 79.9635 15.48697281222502 NO-44 1 26931U 01043C 20107.78589526 -.00000027 00000-0 21502-4 0 9993 2 26931 67.0504 301.5349 0005842 266.3945 93.6488 14.30573697968325 SO-50 1 27607U 02058C 20107.62848477 -.00000006 00000-0 19783-4 0 9992 2 27607 64.5556 203.3931 0055781 193.4680 166.4938 14.75625607931736 CO-55 1 27844U 03031E 20107.52293403 .00000056 00000-0 45078-4 0 9999 2 27844 098.6840 116.1880 0008907 230.2737 129.7657 14.22231638871291 CO-57 1 27848U 03031J 20107.53160645 .00000044 00000-0 39688-4 0 9992 2 27848 098.6909 116.7475 0008662 243.7369 116.2918 14.21819240871140 RS-22 1 27939U 03042A 20107.85755135 .00000104 00000-0 27262-4 0 9996 2 27939 98.0798 243.5310 0012950 182.1731 177.9424 14.66851513884982 NOAA-18 1 28654U 05018A 20107.46565125 .00000059 00000-0 56353-4 0 9993 2 28654 099.0506 163.2958 0014901 049.4623 310.7843 14.12503218768164 CO-58 1 28895U 05043F 20107.61863308 .00000133 00000-0 34399-4 0 9998 2 28895 97.9991 245.7410 0018139 114.4075 245.9023 14.63757012771797 Falconsat-3 1 30776U 07006E 20107.74353639 .00002680 00000-0 72376-4 0 9991 2 30776 35.4350 314.7551 0003220 323.7978 36.2531 15.37538098727338 CO-65 1 32785U 08021C 20107.61924171 .00000222 00000-0 29576-4 0 9996 2 32785 97.5705 98.3666 0012570 345.4994 14.5861 14.88448241648749 AAUSAT2 1 32788U 08021F 20107.74343116 .00000308 00000-0 33086-4 0 9993 2 32788 97.4926 114.9845 0010105 261.9008 98.1067 14.95006823650192 DO-64 1 32789U 08021G 20107.08010223 .00001422 00000-0 97280-4 0 9995 2 32789 097.4252 152.0452 0012695 162.5707 197.5959 15.07594486652412 CO-66 1 32791U 08021J 20107.72677835 .00000415 00000-0 47266-4 0 9997 2 32791 97.5399 104.6097 0012077 313.5020 46.5194 14.91015550649261 RS-30 1 32953U 08025A 20107.82695858 .00000037 00000-0 19437-3 0 9995 2 32953 82.5026 316.2433 0018894 186.2028 173.8818 12.43095195539974 PRISM 1 33493U 09002B 20107.76029115 .00000689 00000-0 65449-4 0 9999 2 33493 98.1396 45.5115 0013719 258.7727 101.1951 14.96977013610484 NOAA-19 1 33591U 09005A 20107.53597631 .00000028 00000-0 40829-4 0 9991 2 33591 099.1970 111.2701 0013034 247.9782 112.0004 14.12403023576399 TISAT-1 1 36799U 10035E 20107.57567138 .00000235 00000-0 29730-4 0 9990 2 36799 98.1891 275.4904 0012611 166.8358 193.3190 14.91318712529909 JUGNU 1 37839U 11058B 20107.21312252 .00000298 00000-0 17413-4 0 9992 2 37839 019.9615 300.2173 0018928 062.2007 092.5723 14.12676960439976 SRMSAT 1 37841U 11058D 20107.41445333 .00000317 00000-0 29267-4 0 9996 2 37841 19.9734 2.0376 0011720 282.0379 235.0624 14.10655550439491 AO-71 1 37854U 11061E 20107.69400170 .00000859 00000-0 51185-4 0 9999 2 37854 101.7027 167.0926 0158628 245.3898 113.0718 15.07134288462627 HRBE 1 37855U 11061F 20107.66594687 .00000495 00000-0 32696-4 0 9996 2 37855 101.7166 164.2346 0171174 258.2701 99.9262 15.06154278462372 ALMASAT-1 1 38078U 12006B 20107.51833694 .00534000 44733-5 38598-3 0 9998 2 38078 69.4063 100.2887 0030368 148.8267 347.7820 16.14479934445268 HORYU-2 1 38340U 12025D 20107.71697273 .00000149 00000-0 29726-4 0 9994 2 38340 98.2875 159.7328 0010423 233.6460 126.3787 14.75833264425859 RS-40 1 38735U 12041C 20107.45208874 .00000021 00000-0 82203-4 0 9994 2 38735 082.4799 039.3171 0016179 300.4255 059.5233 12.42579428350159 BEESAT-3 1 39135U 13015F 20107.45089268 .00000678 00000-0 42426-4 0 9996 2 39135 64.8656 141.6485 0041371 257.7685 101.8807 15.18069000386195 BEESAT-2 1 39136U 13015G 20107.53937916 .00000865 00000-0 52617-4 0 9999 2 39136 064.8657 146.1247 0028958 281.1717 078.6153 15.17445422385724 ZACUBE-1 1 39417U 13066B 20107.69076349 .00000214 00000-0 32973-4 0 9999 2 39417 97.5650 109.1528 0060266 119.6829 241.0403 14.81250086345898 TRITON-1 1 39427U 13066M 20107.79188579 .00000187 00000-0 38039-4 0 9998 2 39427 97.7196 72.1686 0112149 275.4591 83.3830 14.67979350342800 GOMX-1 1 39430U 13066Q 20107.82453040 .00000263 00000-0 56332-4 0 9995 2 39430 97.7854 50.0926 0151784 19.2526 341.4331 14.59376457340810 LO-74 1 39440U 13066AA 20107.66336160 .00000197 00000-0 34217-4 0 9995 2 39440 97.6274 93.5949 0080064 179.7694 180.3568 14.75987714344664 AO-73 1 39444U 13066AE 20107.65642859 .00000290 00000-0 41629-4 0 9992 2 39444 97.5598 111.3149 0059467 112.4520 248.3006 14.82097030344801 SPROUT 1 39770U 14029E 20107.87573306 .00000915 00000-0 10649-3 0 9999 2 39770 97.8904 214.4408 0009356 161.6959 198.4650 14.87692613319900 DUCHIFAT-1 1 40021U 14033M 20107.80191475 .00000355 00000-0 41845-4 0 9992 2 40021 97.9399 38.6724 0013973 126.3203 233.9307 14.90863493316706 NANOSATCBR1 1 40024U 14033Q 20107.79054416 .00000294 00000-0 36368-4 0 9992 2 40024 97.9256 35.2378 0013210 130.2119 230.0256 14.90038982316576 DTUSAT-2 1 40030U 14033W 20107.51421864 .00000234 00000-0 31066-4 0 9998 2 40030 097.9027 029.4372 0012835 133.8403 226.3876 14.88687374315796 EO-80 1 40032U 14033Y 20107.73261196 .00000269 00000-0 34897-4 0 9997 2 40032 97.9034 29.6569 0012773 134.0697 226.1573 14.88634949316327 ANTELSAT 1 40034U 14033AA 20107.50186092 .00000194 00000-0 35981-4 0 9997 2 40034 097.7227 326.1386 0058074 197.5640 162.3562 14.74233075312751 VELOX-1 1 40057U 14034E 20107.61734436 .00000323 00000-0 52637-4 0 9997 2 40057 98.2689 242.9216 0010534 350.8227 9.2796 14.77840182312502 DAURIA DX 1 1 40071U 14037C 20107.91482100 .00000068 00000-0 16279-4 0 9995 2 40071 98.4569 282.9215 0008013 343.0998 16.9949 14.81350854312140 HODOYOSHI-1 1 40299U 14070B 20107.81340183 .00000601 00000-0 27629-4 0 9991 2 40299 97.3242 185.9758 0014509 57.6192 78.4811 15.24005977302425 CHUBUSAT-1 1 40300U 14070C 20107.82321970 .00000673 00000-0 31884-4 0 9995 2 40300 97.2919 178.8132 0021457 70.7672 355.6920 15.22442265302136 QSAT-EOS 1 40301U 14070D 20107.79594677 .00001790 00000-0 70092-4 0 9993 2 40301 97.2953 183.6428 0026593 49.5310 93.0239 15.26781551302523 FIREBIRD FU3 1 40377U 15003B 20107.71106954 .00002042 00000-0 81713-4 0 9995 2 40377 99.1015 155.2732 0124888 159.8159 200.8072 15.19833269287937 FIREBIRD FU4 1 40378U 15003C 20107.82762013 .00002171 00000-0 86507-4 0 9991 2 40378 99.1018 155.5083 0125077 159.2967 201.3395 15.19849179287958 GRIFEX 1 40379U 15003D 20107.84746946 .00001166 00000-0 52806-4 0 9999 2 40379 99.1094 147.8013 0133307 183.0204 177.0234 15.16245561287519 NO-84 1 40654U 15025D 20106.38358315 .00010733 00000-0 13038-3 0 9045 2 40654 54.9865 231.1905 0121665 25.9308 334.7754 15.52801450159220 DEORBITSAIL 1 40719U 15032E 20107.71625182 .00000378 00000-0 60698-4 0 9995 2 40719 97.8773 357.8568 0017659 50.3199 309.9565 14.76959274256982 NUDT-PHONESAT 1 40900U 15049B 20107.87193670 .00002142 00000-0 91600-4 0 9992 2 40900 97.4334 119.3625 0011832 192.7338 286.9714 15.23878127253810 XW-2A 1 40903U 15049E 20107.83649797 .00002284 00000-0 53862-4 0 9992 2 40903 97.2949 156.7274 0014555 121.5329 354.9502 15.42872181256979 XW-2C 1 40906U 15049H 20107.73541156 .00000769 00000-0 43433-4 0 9993 2 40906 97.4772 109.9979 0013352 224.5090 246.1082 15.16008114252905 XW-2D 1 40907U 15049J 20107.73841685 .00000818 00000-0 45708-4 0 9996 2 40907 97.4754 109.6991 0012868 220.1338 250.1106 15.16232354252924 LILACSAT-2 1 40908U 15049K 20107.77260678 .00000305 00000-0 20406-4 0 9997 2 40908 97.4913 108.1701 0014411 231.6586 180.6722 15.14002829252665 XW-2E 1 40909U 15049L 20107.92157260 .00001122 00000-0 57924-4 0 9990 2 40909 97.4647 113.2561 0012456 210.8142 213.4328 15.18323050253197 XW-2F 1 40910U 15049M 20107.72989175 .00001090 00000-0 57122-4 0 9992 2 40910 97.4685 112.1709 0013397 210.8355 265.1446 15.17832705252975 XW-2B 1 40911U 15049N 20107.79722484 .00000703 00000-0 39862-4 0 9999 2 40911 97.4760 110.4484 0012794 220.8450 314.2007 15.16158434252820 DCBB 1 40912U 15049P 20107.75421347 .00001124 00000-0 54937-4 0 9998 2 40912 97.4505 116.2779 0014359 187.5809 282.9360 15.20210188253346 TW-1C 1 40926U 15051B 20107.79377745 .00020786 00000-0 22505-3 0 9992 2 40926 97.0915 159.2369 0004598 331.7972 139.8126 15.63582151257389 TW-1A 1 40928U 15051D 20107.85191588 .00003115 00000-0 74127-4 0 9995 2 40928 97.1160 137.1755 0012294 57.3865 116.8329 15.42300344255873 IO-86 1 40931U 15052B 20105.45443477 .00000583 00000-0 -78876-5 0 9994 2 40931 5.9946 71.8316 0012948 92.5385 267.6211 14.76630990245780 LQSat 1 40958U 15057A 20107.64661910 .00000007 00000-0 87321-5 0 9990 2 40958 97.8583 173.0151 0017835 353.3091 6.7876 14.73114977243405 ATHENOXAT-1 1 41168U 15077C 20107.71565782 .00001958 00000-0 67098-4 0 9998 2 41168 14.9874 154.3557 0011431 349.1050 10.9023 15.14260993239972 ChubuSat-2 1 41338U 16012B 20107.16152552 .00000334 00000-0 19166-4 0 9993 2 41338 031.0045 022.3721 0013899 219.6988 140.2631 15.00273204228377 ChubuSat-3 1 41339U 16012C 20107.82827607 .00000309 00000-0 17158-4 0 9998 2 41339 31.0134 15.8446 0013598 234.7996 125.1374 15.00439929228476 Horyu-4 1 41340U 16012D 20107.40792214 .00000496 00000-0 30732-4 0 9999 2 41340 31.0064 6.9035 0014116 252.7937 107.1153 15.01464753228544 OUFTI-1 1 41458U 16025C 20107.72412174 .00001559 00000-0 81140-4 0 9992 2 41458 98.0980 215.0650 0165042 57.8914 303.8212 15.06712440218188 e-st@r-II 1 41459U 16025D 20107.81850277 .00001738 00000-0 90557-4 0 9994 2 41459 98.0978 214.6266 0166569 59.5453 302.2105 15.06290941218165 AAUSAT4 1 41460U 16025E 20107.84939847 .00002167 00000-0 10902-3 0 9992 2 41460 98.0940 216.7738 0155131 48.8316 312.6171 15.08529734218351 LO-87 1 41557U 16033B 20107.88500128 .00001166 00000-0 45501-4 0 9990 2 41557 97.4020 198.5203 0012178 310.4291 49.5885 15.27885604216377 NuSat2 1 41558U 16033C 20107.73372735 .00001341 00000-0 48968-4 0 9991 2 41558 97.4069 200.4450 0011194 308.9244 51.0997 15.29854133216451 Lapan A3 1 41603U 16040E 20107.84126581 .00000064 00000-0 60716-5 0 9995 2 41603 97.3157 163.2909 0015048 61.2214 359.1712 15.19819281211784 Swayam 1 41607U 16040J 20107.68480189 .00001548 00000-0 66492-4 0 9992 2 41607 97.3236 168.4969 0014400 50.3381 309.9124 15.24075181212010 Pratham 1 41783U 16059A 20107.71536689 .00000047 00000-0 18308-4 0 9994 2 41783 98.0232 164.8903 0034371 148.7578 211.5677 14.63048370189854 AlSat 1N 1 41789U 16059G 20107.71774066 .00000092 00000-0 26361-4 0 9991 2 41789 98.0263 167.5661 0029318 136.3665 223.9859 14.64310532189997 ScatSat 1 41790U 16059H 20107.88243697 -.00000002 00000-0 10243-4 0 9996 2 41790 98.1682 149.9794 0006890 105.1512 255.0440 14.50906796188293 TY-1 1 41844U 16066D 20107.81534270 .00000838 00000-0 36649-4 0 9991 2 41844 97.4053 116.6751 0014246 194.9999 267.0352 15.24755338190878 Pegasus-1 1 41846U 16066F 20107.42205345 .00000248 00000-0 47073-4 0 9996 2 41846 098.6688 156.8026 0367904 058.0352 305.6048 14.37740492180051 CAS-2T 1 41847U 16066G 20107.63117422 .00000066 00000-0 19787-4 0 9997 2 41847 98.6616 157.4967 0366599 53.2625 310.1641 14.38056359180539 EO-88 1 42017U 17008BX 20107.66523882 .00001593 00000-0 64117-4 0 9991 2 42017 97.3645 176.1196 0006587 165.5363 194.6065 15.26324660176129 nSIGHT1 1 42726U 98067MF 20107.63086311 .00547156 17056-3 49307-3 0 9995 2 42726 51.6213 175.4262 0009587 353.6369 6.4522 16.11963029165764 CAS-4B 1 42759U 17034B 20107.83263223 .00000229 00000-0 27419-4 0 9991 2 42759 43.0206 5.6078 0011611 356.2410 120.0151 15.09790138156657 CAS-4A 1 42761U 17034D 20107.90122126 .00000340 00000-0 34137-4 0 9997 2 42761 43.0209 4.5710 0012164 357.9783 57.1769 15.09869491156664 UCLSat 1 42765U 17036A 20107.41595128 .00001227 00000-0 54431-4 0 9999 2 42765 097.3077 163.3051 0009800 240.0613 119.9652 15.23389620157130 NIUSat 1 42766U 17036B 20107.72074285 .00000915 00000-0 43454-4 0 9996 2 42766 97.3073 161.2415 0014107 232.9402 127.0544 15.21612401156302 LituanicaSAT 2 1 42768U 17036D 20107.74175689 .00002042 00000-0 87449-4 0 9995 2 42768 97.3129 163.5042 0013447 228.3280 131.6808 15.23839523156443 Aalto 1 1 42775U 17036L 20107.64400018 .00000756 00000-0 36286-4 0 9992 2 42775 97.3055 161.5165 0012490 232.2625 127.7480 15.21751710156279 URSA MAIOR 1 42776U 17036M 20107.70630490 .00000822 00000-0 39022-4 0 9994 2 42776 97.3066 161.8354 0012302 231.6892 128.3239 15.21925022156296 Max Valier Sat 1 42778U 17036P 20107.43340812 .00000914 00000-0 42337-4 0 9997 2 42778 097.3118 162.7649 0010795 235.3364 124.6855 15.22509339156295 Pegasus 1 42784U 17036V 20107.42870500 .00001125 00000-0 50587-4 0 9996 2 42784 097.3082 163.0315 0010355 241.2919 118.7278 15.23085475156339 NUDATSat 1 42787U 17036Y 20107.60332005 .00001702 00000-0 72383-4 0 9991 2 42787 097.3128 164.4569 0009478 242.6722 117.3551 15.24330641156271 SUCHAI 1 1 42788U 17036Z 20107.40917914 .00001332 00000-0 58482-4 0 9991 2 42788 097.3089 163.5446 0009923 239.3365 120.6894 15.23610200156439 SKCUBE 1 42789U 17036AA 20107.25198361 .00001243 00000-0 54988-4 0 9990 2 42789 097.3084 163.2625 0009787 240.2699 119.7565 15.23462315156324 VZLUSAT 1 1 42790U 17036AB 20107.39492811 .00001668 00000-0 71038-4 0 9990 2 42790 097.3107 164.2502 0009358 236.9152 123.1188 15.24320524156390 VENTA 1 1 42791U 17036AC 20107.42252917 .00001148 00000-0 51060-4 0 9992 2 42791 097.3082 163.4740 0009454 240.0831 119.9467 15.23453053156346 Robusta 1B 1 42792U 17036AD 20107.67311743 .00001229 00000-0 54138-4 0 9992 2 42792 97.3086 163.9051 0009380 238.7907 121.2412 15.23649731156411 D-SAT 1 42794U 17036AF 20107.64403979 .00000362 00000-0 36773-4 0 9996 2 42794 97.5007 143.3395 0125469 210.6875 148.6965 14.91249432153489 TechnoSat 1 42829U 17042E 20107.67918238 .00000188 00000-0 24257-4 0 9994 2 42829 97.5286 352.3306 0015422 126.8842 233.3793 14.91079517150089 QIKCOM-1 1 42983U 98067NF 20107.73521560 .00004781 00000-0 61704-4 0 9997 2 42983 51.6379 256.5167 0003756 179.2310 180.8690 15.61087818140647 AO-91 1 43017U 17073E 20107.75158685 .00000337 00000-0 32311-4 0 9995 2 43017 97.7249 22.3636 0255713 251.3132 106.0167 14.78882447130049 EcAMSat 1 43019U 98067NG 20107.66429826 .00009267 00000-0 96742-4 0 9996 2 43019 51.6398 244.8682 0003730 169.4695 190.6380 15.65305628223115 PICSAT 1 43132U 18004X 20107.21526463 .00001332 00000-0 57483-4 0 9995 2 43132 097.4511 178.9301 0007889 272.4477 087.5857 15.24264557125577 AO-92 1 43137U 18004AC 20107.70191091 .00001003 00000-0 44362-4 0 9996 2 43137 97.4497 179.2715 0007487 273.1508 86.8873 15.24005764125635 TianYi 2 1 43155U 18008A 20107.85211043 .00000796 00000-0 50524-4 0 9991 2 43155 97.4505 178.5019 0017724 6.5426 104.9622 15.11551213123617 Zhou Enlai 1 43156U 18008B 20107.86366345 .00001218 00000-0 76359-4 0 9993 2 43156 97.4555 178.3681 0014696 6.4294 104.7923 15.11088870123574 TianYi 6 1 43158U 18008D 20107.80175374 .00001065 00000-0 68089-4 0 9990 2 43158 97.4503 177.4417 0013816 4.2527 135.4705 15.10630033123510 S-Net G 1 43186U 18014G 20107.47773164 .00000265 00000-0 28192-4 0 9994 2 43186 097.6970 016.3116 0012367 074.6230 285.6358 14.96778960120424 S-Net H 1 43187U 18014H 20107.74495676 .00000284 00000-0 29889-4 0 9999 2 43187 97.6968 16.5548 0012365 73.7799 286.4782 14.96779065120462 S-Net J 1 43188U 18014J 20107.74481698 .00000278 00000-0 29282-4 0 9999 2 43188 97.6971 16.5820 0012339 73.8353 286.4225 14.96778792120466 S-Net K 1 43189U 18014K 20107.74521436 .00000294 00000-0 30684-4 0 9991 2 43189 97.6968 16.5507 0012363 73.8301 286.4280 14.96778277119013 FMN 1 1 43192U 18015A 20107.87273008 .00002231 00000-0 91061-4 0 9998 2 43192 97.4325 237.7054 0014454 310.7179 165.8501 15.25386256122515 Shaonian Xing 1 43199U 18015H 20107.81338712 .00001559 00000-0 64074-4 0 9999 2 43199 97.4110 236.0800 0015842 321.9356 183.5938 15.25604931122567 1KUNS-PF 1 43466U 98067NP 20107.73125490 .00121262 16480-4 40297-3 0 9996 2 43466 51.6278 217.8016 0005663 325.8597 34.2043 15.90104407110658 UBAKUSAT 1 43467U 98067NQ 20107.64025040 .00028541 00000-0 21326-3 0 9992 2 43467 51.6328 239.1872 0000343 215.7289 144.3686 15.72466951110377 EnduroSat One 1 43551U 98067NZ 20107.59192119 .00045784 00000-0 28729-3 0 9994 2 43551 51.6347 238.8345 0003963 247.2428 112.8153 15.76278575100600 EQUISat 1 43552U 98067PA 20107.60039042 .00028501 00000-0 22318-3 0 9998 2 43552 51.6350 245.7667 0004525 229.5646 130.4957 15.71343797100476 UiTMSat 1 1 43589U 98067PD 20107.59004039 .00035008 00000-0 25175-3 0 9998 2 43589 51.6322 244.7858 0004285 245.2583 114.7970 15.73251634 96221 Maya 1 1 43590U 98067PE 20107.64653616 .00035048 00000-0 25194-3 0 9992 2 43590 51.6323 244.4227 0004278 245.3412 114.7141 15.73260084 96167 Bhutan 1 1 43591U 98067PF 20107.62398466 .00034868 00000-0 24964-3 0 9993 2 43591 51.6329 244.3287 0004449 246.1503 113.9030 15.73356034 96168 SiriusSat 1 1 43595U 98067PG 20107.71547322 .00031378 00000-0 24468-3 0 9996 2 43595 51.6321 247.9040 0002070 217.8124 142.2729 15.71397961 95309 SiriusSat 2 1 43596U 98067PH 20107.70947866 .00030462 00000-0 23888-3 0 9991 2 43596 51.6328 248.6830 0002409 211.2695 148.8159 15.71279443 95290 Tanusha-3 1 43597U 98067PJ 20107.64577620 .00059661 00000-0 33967-3 0 9993 2 43597 51.6301 239.8184 0002745 269.1127 90.9559 15.78364766 95405 SurfSat 1 43614U 18070B 20107.70094575 .00002656 00000-0 69089-4 0 9996 2 43614 93.0220 129.0719 0013879 206.0967 153.9589 15.38895647 88982 CP-7 DAVE 1 43615U 18070C 20107.59678537 .00002401 00000-0 62752-4 0 9998 2 43615 93.0223 129.0227 0014043 206.1709 153.8837 15.38765607 88964 ELFIN-B 1 43616U 18070D 20107.55877848 .00003689 00000-0 92524-4 0 9990 2 43616 093.0187 128.9319 0014421 208.6748 151.3715 15.39983959088998 ELFIN-A 1 43617U 18070E 20107.53401347 .00003825 00000-0 95450-4 0 9999 2 43617 93.0240 129.3820 0013897 204.7124 155.3467 15.40137968 88993 STARS-Me Mother 1 43640U 98067PQ 20107.68102104 .00014715 00000-0 15619-3 0 9992 2 43640 51.6345 261.2872 0004209 160.9388 199.1765 15.64322629 87059 CubeBel 1 1 43666U 18083E 20107.85745370 .00001040 00000-0 54230-4 0 9997 2 43666 97.4946 134.9179 0013886 209.6637 141.5791 15.18142123 81262 Changshagaoxin 1 43669U 18083H 20107.88074355 .00000725 00000-0 39818-4 0 9995 2 43669 97.4826 133.3204 0010240 199.3857 160.6988 15.17204128 81199 Ten-Koh 1 43677U 18084G 20107.58381294 .00000103 00000-0 16481-4 0 9996 2 43677 97.8740 224.8260 0016119 8.1026 352.0449 14.90268909 79723 PO-101 1 43678U 18084H 20107.89282718 .00000304 00000-0 35950-4 0 9997 2 43678 97.8740 226.3316 0010634 28.6349 331.5456 14.91621385 79849 IRVINE 01 1 43693U 18088D 20107.45709143 .00002393 00000-0 10081-3 0 9993 2 43693 85.0320 118.0492 0018973 152.2929 207.9329 15.22601921 79410 QO-100 1 43700U 18090A 20107.62618979 .00000127 00000-0 00000 0 0 9999 2 43700 0.0234 124.0995 0002655 298.5968 33.7417 1.00272883 5337 Reaktor Hello World 1 43743U 18096AA 20107.80381297 .00001294 00000-0 51044-4 0 9997 2 43743 97.4236 181.9820 0017628 351.7396 146.3121 15.27270669 76984 MinXSS-2 1 43758U 18099A 20107.78163216 -.00000085 00000-0 -24669-5 0 9995 2 43758 97.7099 180.7180 0016467 40.0593 320.1839 14.95622792 74734 AO-95 1 43770U 18099N 20107.66303092 .00000292 00000-0 31886-4 0 9990 2 43770 97.7094 180.1090 0015564 48.0441 312.2103 14.94948765 74684 RANGE-B 1 43772U 18099Q 20107.42315747 .00000716 00000-0 70416-4 0 9999 2 43772 97.7162 180.3128 0014975 37.4271 322.7990 14.95128823 74646 RANGE-A 1 43773U 18099R 20107.65298144 -.00000077 00000-0 -17707-5 0 9993 2 43773 97.7038 179.7869 0014325 36.1950 324.0237 14.94938109 74679 MOVE-II 1 43780U 18099Y 20107.62858348 .00000580 00000-0 57744-4 0 9997 2 43780 97.7098 180.2460 0014605 46.8115 313.4324 14.95341645 74672 SNUSat 2 1 43782U 18099AA 20107.63540564 .00000076 00000-0 12069-4 0 9999 2 43782 97.7092 180.2714 0013611 36.3577 323.8566 14.95223630 74689 SnugLite 1 43784U 18099AC 20107.74160308 .00000644 00000-0 63489-4 0 9990 2 43784 97.7057 180.2195 0016008 42.9268 317.3199 14.95314764 74711 ITASat 1 1 43786U 18099AE 20107.74099002 .00000555 00000-0 55454-4 0 9998 2 43786 97.7110 180.5608 0016072 41.9125 318.3323 14.95294195 74712 EAGLET 1 1 43790U 18099AJ 20107.74869306 .00000692 00000-0 67283-4 0 9990 2 43790 97.7101 180.7957 0014575 46.9806 313.2633 14.95676807 74423 ESEO 1 43792U 18099AL 20107.75488748 .00000440 00000-0 44780-4 0 9998 2 43792 97.7076 180.6558 0014358 43.8848 316.3510 14.95585744 74486 CSIM 1 43793U 18099AM 20107.75023672 .00000978 00000-0 92262-4 0 9994 2 43793 97.7066 180.5982 0013849 42.6768 317.5527 14.95986804 74469 Astrocast 0.1 1 43798U 18099AS 20107.67817763 .00000556 00000-0 54907-4 0 9998 2 43798 97.7093 180.8131 0012973 28.7843 331.4091 14.95846012 74714 JO-97 1 43803U 18099AX 20107.82955692 .00000360 00000-0 37627-4 0 9999 2 43803 97.7072 180.4820 0016177 42.0597 318.1862 14.95465907 74723 Suomi 100 1 43804U 18099AY 20107.62922570 .00000361 00000-0 37721-4 0 9993 2 43804 97.7071 180.2758 0016267 42.8083 317.4401 14.95456411 74708 Al Farabi 2 1 43805U 18099AZ 20107.87585753 .00000748 00000-0 72461-4 0 9998 2 43805 97.7074 180.5855 0016109 42.2056 318.0402 14.95564601 74745 PWSat 2 1 43814U 18099BJ 20107.81888519 .00026617 00000-0 16547-2 0 9992 2 43814 97.7828 187.4346 0006569 73.5263 286.6676 15.09598404 74410 CHOMPTT 1 43855U 18104G 20107.86886225 .00001235 00000-0 50891-4 0 9992 2 43855 85.0377 215.9258 0015407 282.6963 77.2557 15.22873035 74158 ISAT 1 43879U 18111D 20107.77110091 .00000550 00000-0 53831-4 0 9993 2 43879 97.7060 16.1831 0014890 90.0383 270.2545 14.96202697 69261 UWE-4 1 43880U 18111E 20107.49384029 .00000844 00000-0 79391-4 0 9993 2 43880 97.7068 16.1473 0014068 92.1585 268.1247 14.96432099 69230 Sparrow 1 43881U 18111F 20107.41155719 .00000435 00000-0 43368-4 0 9999 2 43881 097.7070 016.1288 0013946 091.0322 269.2497 14.96487817071217 Lume 1 1 43908U 18111AJ 20107.63124861 .00001182 00000-0 50051-4 0 9994 2 43908 97.2708 9.3709 0021569 6.6010 353.5508 15.24920787 72602 FO-98 1 43933U 19003B 20107.81007528 .00000747 00000-0 35467-4 0 9993 2 43933 97.2370 159.8863 0019728 98.0414 13.2901 15.22026781 69156 FO-99 1 43937U 19003F 20107.80596481 .00001453 00000-0 61881-4 0 9991 2 43937 97.2331 160.9511 0025969 82.8759 28.5500 15.24243590 69242 Delphini 1 1 44030U 98067PW 20107.52895395 .00020351 00000-0 21530-3 0 9992 2 44030 51.6343 268.5332 0004065 211.6826 148.3924 15.64133370 68812 MYSat 1 1 44045U 18092F 20107.92466169 .00002290 00000-0 74295-4 0 9994 2 44045 51.6470 340.9749 0012404 102.2298 258.0062 15.36374954 65835 AstroCast 0.2 1 44083U 19018F 20107.73483577 .00000186 00000-0 11324-4 0 9992 2 44083 97.4268 169.6165 0014033 34.9055 325.3098 15.21524586 57997 AISTechSat 3 1 44103U 19018AB 20107.80657772 .00000871 00000-0 39870-4 0 9990 2 44103 97.4130 169.8174 0014780 48.8822 16.4057 15.23067400 58055 AISat 1 1 44104U 19018AC 20107.66879322 .00001009 00000-0 34593-4 0 9993 2 44104 97.4683 176.9406 0059917 72.8377 287.9412 15.30961696 58350 Raavana-1 1 44329U 98067QE 20107.20603957 .00009978 00000-0 14347-3 0 9999 2 44329 51.6388 285.9693 0006462 131.4051 228.7497 15.56737820 47307 Uguisu 1 44330U 98067QF 20106.76616639 .00011366 00000-0 16292-3 0 9997 2 44330 051.6386 288.2779 0006471 128.7710 231.3861 15.56658034047213 NepaliSat-1 1 44331U 98067QG 20107.52053526 .00011087 00000-0 15842-3 0 9993 2 44331 51.6384 284.3191 0006454 133.6687 226.4841 15.56774089 47342 Prox-1 1 44339U 19036A 20107.79829999 .00000967 00000-0 18016-3 0 9995 2 44339 24.0027 139.8207 0010662 194.8319 165.1897 14.52931494 43152 Oculus-ASR 1 44348U 19036K 20107.59964880 .00016636 00000-0 25191-3 0 9994 2 44348 28.5189 68.6837 0371397 8.3730 352.2857 15.01464680 44495 Armadillo 1 44352U 19036P 20107.58612993 .00023863 00000-0 36033-3 0 9990 2 44352 28.5339 65.9704 0361022 12.1975 348.7068 15.03735181 44468 NO-104 1 44354U 19036R 20107.57244156 .00017426 00000-0 25988-3 0 9998 2 44354 28.5310 66.7402 0368333 10.6068 350.2049 15.02424542 44496 NO-103 1 44355U 19036S 20107.58705036 .00031458 00000-0 45287-3 0 9994 2 44355 28.5308 61.0114 0350819 19.9170 341.4751 15.06853997 44551 CP9 1 44360U 19036X 20107.54248441 .00050634 -50837-5 61245-3 0 9996 2 44360 028.5151 051.2700 0336312 036.3094 325.9803 15.12957883044534 Move-IIb 1 44398U 19038N 20107.55308243 .00001329 00000-0 80264-4 0 9998 2 44398 97.5302 69.6015 0024943 344.7519 15.2957 15.12194636 43226 SONATE 1 44400U 19038Q 20107.44146315 .00000651 00000-0 41613-4 0 9992 2 44400 097.5335 069.5102 0024792 343.4180 016.6237 15.11897845043209 BeeSat 9 1 44412U 19038AC 20107.86617095 .00000923 00000-0 56979-4 0 9992 2 44412 97.5324 69.9937 0022494 348.0255 12.0438 15.12202851 42964 JAISAT-1 1 44419U 19038F 20107.64151941 .00001037 00000-0 62728-4 0 9994 2 44419 97.5325 69.9897 0021337 348.4248 11.6489 15.12685165 43255 LightSail-2 1 44420U 19036AC 20107.47599605 .00005241 00000-0 11402-2 0 9990 2 44420 024.0090 139.2779 0017493 152.4266 207.7086 14.55121931041286 Taurus 1 1 44530U 19059C 20107.85025370 .00000378 00000-0 12027-3 0 9993 2 44530 98.5690 188.3474 0013652 349.0416 11.0471 14.45413663 31447 MO-106 1 44830U 19084G 20107.60105425 .00045078 00000-0 32367-3 0 9992 2 44830 96.9850 336.3837 0033378 113.9048 246.5719 15.72738979 20713 TRSI-Sat 1 44831U 19084H 20107.41089603 .00043319 00000-0 31260-3 0 9998 2 44831 96.9859 336.2075 0033455 113.7139 246.7641 15.72625767 20694 MO-105 1 44832U 19084J 20107.57297383 .00045671 00000-0 31896-3 0 9990 2 44832 096.9861 336.4309 0032461 113.0500 247.4193 15.73424106020719 Duchifat 3 1 44854U 19089C 20107.68133006 .00000356 00000-0 35198-4 0 9993 2 44854 36.9667 103.3996 0009152 286.3188 73.6551 14.99022980 19021 OPS-SAT 1 44878U 19092F 20107.23533011 -.00000066 00000-0 00000-0 0 9993 2 44878 097.4693 291.5725 0013865 204.4254 155.6414 15.15366309018112 FloripaSat 1 1 44885U 19093G 20107.74893865 .00000277 00000-0 41654-4 0 9991 2 44885 97.9597 184.2975 0013334 246.7308 113.2503 14.82001267 17562 SwampSat-2 1 45115U 19071E 20107.73765482 .00011205 00000-0 34379-3 0 9994 2 45115 51.6425 301.3794 0013393 191.5598 168.5079 15.34158807 11645 HuskySat-1 1 45119U 19071J 20107.55188342 .00002434 00000-0 85795-4 0 9995 2 45119 51.6426 302.3859 0012384 187.9294 172.1494 15.33356368 11625 QARMAN 1 45257U 98067RA 20107.76774932 .00005576 00000-0 10392-3 0 9999 2 45257 51.6416 291.9679 0008802 132.6152 227.5580 15.50455340 8930 AztechSat-1 1 45258U 98067RB 20107.76988670 .00005016 00000-0 94630-4 0 9993 2 45258 51.6412 291.9799 0006827 114.6953 245.4747 15.50358334 8900 /EX
